Theta_e
366 365 362 360 356 352 346 339 317 323 322 313 313 316 317 330 331 328 327 334 327 334 336 340 340 338 334 331 332 334 335 326 329 313 309 335 352 353 356 356 357 358 358 359 360 362 363 366 366 366 367 367 366 365 365 365 366 366 366 366 365 365 365 365 365 366 365 365 365 365 364 365 365 365 365 366 366 365 365 365 365 365 364 364 364 363 363 363 362 361 361 362 362 361 360 360 361
365 362 358 358 350 345 332 337 317 316 316 311 313 322 322 327 328 324 325 327 329 332 339 339 338 342 339 337 337 337 334 337 339 337 343 350 353 355 356 357 357 356 358 359 360 362 362 364 366 367 366 366 366 365 366 365 365 366 366 366 366 366 366 366 365 365 365 365 364 364 364 364 365 365 366 366 365 365 364 363 363 364 364 364 363 363 363 363 362 363 363 363 362 362 361 361 362
360 358 355 355 351 344 338 334 313 314 311 307 311 319 329 322 323 326 329 331 334 337 341 340 342 340 334 336 331 331 325 342 343 344 344 352 347 351 356 357 357 357 358 360 360 361 362 364 367 367 366 366 365 365 365 365 365 366 366 365 366 366 366 366 365 365 365 364 364 364 364 364 365 365 365 365 365 364 363 362 363 363 363 362 362 363 363 363 363 363 362 362 362 361 360 361 361
358 357 350 349 335 342 326 324 316 311 308 312 310 321 325 324 324 329 332 333 338 339 339 336 335 341 335 328 332 338 335 336 343 344 343 347 349 354 355 356 359 358 359 360 361 362 362 365 367 367 367 366 365 365 365 365 365 366 365 366 365 366 366 366 365 365 364 364 364 363 364 364 364 365 364 364 364 364 364 363 363 363 363 362 362 362 363 363 362 362 361 362 361 359 359 359 361
355 356 353 348 337 325 323 318 317 317 310 314 311 322 325 326 327 330 332 335 338 338 338 338 338 342 342 338 342 328 331 342 343 347 346 351 356 355 356 357 357 357 357 359 361 361 362 367 366 367 366 366 365 364 365 366 366 365 365 365 365 365 366 366 365 365 364 364 364 364 364 364 364 365 364 364 364 364 364 363 363 363 363 363 362 362 362 361 360 359 360 360 361 360 360 359 359
356 355 359 350 332 341 330 315 313 313 320 323 318 320 326 329 328 331 333 337 338 341 340 339 336 336 333 336 341 333 341 333 344 347 349 350 355 356 356 357 356 355 357 359 360 361 362 367 366 366 366 365 365 364 365 366 365 364 364 364 364 365 366 365 365 365 365 364 364 365 365 365 365 364 364 364 364 364 364 363 363 363 363 362 362 362 361 361 360 359 359 359 360 361 361 361 361
350 347 345 341 337 337 317 313 313 315 320 325 323 323 327 329 331 332 332 334 337 340 342 339 342 337 330 336 341 341 349 348 346 347 353 354 355 356 356 355 355 355 357 359 360 361 363 367 366 366 366 365 365 364 365 365 365 364 364 364 364 365 366 366 366 366 365 365 365 365 364 364 364 364 365 365 365 364 363 363 363 363 362 362 362 361 361 361 360 360 359 359 360 360 361 361 360
364 340 337 325 323 324 314 316 316 319 319 326 328 325 327 330 333 331 330 332 330 333 338 341 339 333 331 344 329 341 350 351 350 354 355 355 355 354 354 355 354 355 358 359 360 361 367 367 367 366 365 365 365 364 364 365 365 365 364 364 365 365 365 365 366 365 365 365 365 365 365 365 364 364 364 364 364 364 364 363 363 363 362 362 362 362 361 360 360 360 359 359 358 359 360 360 359
351 345 343 325 319 323 315 314 316 324 325 328 328 332 333 333 334 331 329 331 333 337 336 339 341 331 331 332 332 343 345 351 352 356 355 354 353 353 354 354 354 355 357 359 361 363 364 367 367 367 366 365 364 364 363 363 364 365 365 366 365 366 365 366 365 365 365 365 365 365 365 364 363 363 363 363 363 363 364 364 364 363 363 363 363 362 361 361 361 359 359 358 358 358 358 358 359
345 339 326 323 321 312 314 314 314 320 324 327 328 326 331 332 332 334 331 331 333 337 338 347 338 331 334 330 334 339 343 354 352 352 354 354 352 353 354 355 357 357 357 358 361 363 363 367 367 367 365 365 364 363 363 363 364 366 366 365 365 365 365 365 365 365 365 364 364 363 364 364 363 364 363 363 362 363 362 362 363 363 363 363 364 363 361 361 361 360 360 359 359 359 358 358 358
328 338 339 319 311 309 310 311 318 322 325 329 328 332 331 335 334 332 334 332 335 335 341 344 334 334 334 332 333 348 354 356 349 348 353 353 353 353 355 358 358 358 357 359 362 363 363 362 367 366 366 365 364 363 363 363 364 367 366 365 365 364 365 365 364 364 363 364 364 363 363 364 364 363 364 364 363 362 363 362 362 362 362 362 363 363 362 361 361 361 361 360 359 359 359 358 358
325 327 329 315 312 311 313 315 317 322 327 328 327 332 334 334 335 331 332 332 336 338 338 345 332 339 331 331 333 343 352 347 350 351 353 354 354 356 358 358 358 359 359 360 362 362 362 363 363 366 366 365 365 363 363 363 363 365 366 364 363 363 363 363 363 364 364 363 363 364 365 365 365 364 364 364 363 363 362 362 362 362 362 361 362 363 362 362 362 362 360 360 360 359 359 358 359
328 329 323 317 314 316 318 316 318 322 323 324 326 332 335 330 331 334 334 335 336 336 336 344 343 343 328 330 338 347 344 350 352 352 352 354 356 358 358 358 359 359 360 362 361 361 362 362 362 362 363 366 365 365 363 362 362 363 362 363 363 363 363 363 363 364 363 363 364 365 366 366 365 365 364 365 364 363 363 362 362 362 362 362 362 361 362 362 361 361 360 360 360 360 358 357 357
329 330 322 316 321 318 317 316 317 316 319 325 330 334 335 332 333 336 338 335 337 335 342 348 345 340 333 334 334 336 344 355 352 352 354 355 357 358 358 358 358 359 360 360 360 361 361 362 363 360 361 361 361 365 364 362 362 362 362 362 362 363 362 362 363 363 363 364 365 366 366 366 366 365 365 365 364 364 364 363 363 363 362 362 361 361 361 361 361 361 361 360 360 359 359 358 357
329 336 324 319 315 315 318 314 317 316 318 327 331 333 333 336 336 336 338 333 335 348 350 354 347 339 326 330 329 336 342 351 353 355 355 356 357 358 358 358 357 357 358 359 360 361 361 362 361 359 359 359 360 360 360 360 361 361 362 362 362 362 362 363 364 364 364 365 366 367 367 367 367 366 366 366 365 364 365 364 363 363 362 362 362 361 361 361 360 361 360 359 360 359 359 359 358
334 334 325 316 309 315 317 320 321 319 319 331 333 337 334 335 338 338 341 344 340 351 350 338 354 337 337 335 335 341 349 351 351 354 355 355 356 356 356 355 355 356 357 358 359 360 361 361 360 359 358 358 358 358 359 359 361 361 361 363 363 363 364 364 364 366 366 366 366 367 368 367 367 366 367 364 366 366 365 364 363 363 363 363 362 362 361 361 360 360 360 359 359 359 359 359 359
339 333 314 312 313 316 319 318 320 314 325 331 336 335 331 331 341 347 350 349 341 342 344 347 344 353 343 342 343 349 350 357 356 352 353 352 351 351 353 353 353 354 356 357 358 358 360 360 359 359 358 358 358 358 358 358 361 362 361 363 363 364 364 365 365 366 366 366 366 366 366 365 363 364 364 363 366 365 365 365 365 364 363 363 363 362 362 360 360 360 360 359 359 359 359 359 360
335 321 314 310 316 318 323 322 324 329 328 331 333 335 331 329 338 341 347 343 343 344 343 347 349 348 351 350 354 353 353 351 349 348 349 348 348 348 349 351 352 350 352 353 355 357 358 359 359 358 358 358 357 358 359 359 360 363 357 357 360 361 364 365 364 361 366 361 367 364 363 366 363 362 362 368 366 366 366 366 366 366 365 364 364 363 363 362 360 360 360 360 359 359 360 355 356
321 320 314 311 316 323 329 330 331 331 330 333 335 335 333 331 338 341 336 336 337 337 341 344 342 345 350 350 350 349 349 348 347 346 346 345 345 346 348 350 350 351 351 352 353 355 356 358 359 358 357 357 357 357 359 358 358 358 357 357 359 364 365 364 360 364 358 359 360 360 364 363 363 362 363 366 367 370 367 368 367 367 367 366 365 364 363 362 362 361 361 360 359 360 356 351 350
322 318 312 314 324 328 333 334 333 336 335 334 333 336 335 336 338 343 334 334 336 332 334 338 338 339 344 348 348 348 347 348 346 345 345 345 345 347 347 349 350 351 351 352 352 355 355 357 358 357 357 357 356 356 357 357 356 355 356 356 357 358 359 363 359 360 359 358 358 358 359 360 364 362 369 370 371 367 366 370 368 368 368 368 367 364 363 362 362 363 363 361 360 361 351 351 350
320 318 314 320 328 325 331 334 335 336 338 334 334 336 334 337 339 340 335 332 333 334 338 336 337 340 344 346 345 346 345 345 346 345 344 344 345 347 349 350 350 351 352 353 353 353 354 356 357 357 357 356 355 356 356 356 356 356 356 355 356 355 356 357 357 358 359 358 357 358 358 360 361 362 362 363 365 363 363 362 363 363 363 360 366 357 357 359 360 356 357 360 353 353 353 349 351
322 319 322 327 328 325 330 332 336 337 338 335 333 333 332 340 340 338 336 328 327 334 340 343 342 343 345 343 344 346 344 344 345 344 345 343 343 344 348 349 352 352 353 351 352 353 355 356 357 357 357 356 355 355 355 357 359 355 355 355 355 356 356 356 357 357 357 359 359 358 359 359 358 360 361 361 362 361 361 360 361 362 360 359 364 357 356 357 356 356 356 355 354 352 352 351 352
315 322 324 327 326 326 330 333 335 336 334 333 332 335 337 335 334 338 337 332 333 341 344 345 345 346 348 346 345 344 344 343 344 346 345 343 345 345 346 348 348 349 351 351 353 353 355 356 357 358 357 356 356 356 356 358 357 356 356 356 355 355 357 356 357 357 357 358 360 361 359 357 357 358 359 360 360 358 358 359 362 361 360 358 362 356 357 357 357 356 355 355 354 354 353 353 353
321 316 323 324 328 327 330 331 333 332 332 332 336 339 334 334 328 337 335 339 340 343 347 347 347 349 347 343 344 343 343 343 344 347 348 344 346 346 347 347 349 350 350 351 353 354 356 355 357 358 357 356 355 357 357 356 357 356 357 361 359 360 359 357 356 358 359 359 360 361 362 357 354 354 358 358 359 356 356 356 362 361 360 359 362 359 358 358 357 357 356 354 355 355 354 353 353
321 319 322 325 328 329 332 332 334 336 334 337 336 333 332 334 332 336 333 338 342 344 347 346 347 346 345 343 343 343 343 344 345 348 348 347 347 351 350 350 348 349 349 350 352 354 356 357 358 358 358 357 356 357 357 357 357 356 357 358 357 362 359 357 357 358 359 359 359 360 360 353 345 347 353 356 357 356 355 355 361 361 361 360 362 360 359 358 357 356 354 352 352 352 352 352 353
321 321 324 326 327 330 331 331 333 335 337 336 332 330 333 335 337 332 335 339 342 346 345 345 345 344 343 343 344 343 342 344 346 348 347 345 349 350 347 345 347 347 349 350 351 351 355 357 358 358 358 357 356 356 357 357 356 355 356 357 358 362 359 359 358 354 355 355 356 357 355 353 341 340 347 353 354 354 353 355 361 362 361 361 362 360 360 357 357 355 352 351 350 351 351 353 354
324 323 325 327 328 330 332 329 331 334 335 336 329 328 329 335 332 321 337 340 343 346 344 344 343 342 344 344 345 344 343 345 347 345 348 344 345 347 346 345 346 350 351 349 352 352 355 354 356 358 357 359 356 354 356 357 357 355 356 356 357 359 359 358 356 352 353 354 354 355 354 354 346 343 340 340 341 346 349 354 360 360 360 361 362 361 361 358 357 355 352 350 349 351 351 353 352
321 320 326 328 329 331 330 330 329 329 330 334 330 328 331 334 333 324 335 341 344 342 343 343 342 342 343 345 345 346 345 348 349 349 344 344 344 346 344 343 345 345 346 349 349 350 352 354 356 357 357 358 355 353 356 356 355 355 356 355 354 356 357 355 353 352 352 352 353 352 352 351 361 349 352 351 350 350 348 354 356 357 359 359 361 361 360 360 358 358 354 352 351 351 351 352 352
320 321 316 319 324 324 327 326 329 332 327 335 335 326 325 328 325 331 337 341 342 341 341 342 342 342 343 344 345 344 345 347 348 348 348 348 348 350 346 346 347 344 345 347 349 353 352 355 354 356 359 363 355 353 353 355 354 354 357 355 353 356 354 352 351 351 351 350 351 352 352 356 358 357 358 356 355 350 351 352 354 356 356 355 357 360 362 359 359 357 354 354 351 349 350 351 352
321 319 317 313 316 316 325 332 330 329 330 336 330 307 309 321 328 333 339 339 340 338 338 340 340 340 341 343 343 344 345 346 346 347 349 350 349 350 348 351 356 346 344 346 348 347 354 354 355 355 357 359 358 359 361 356 355 358 359 359 364 360 359 355 357 352 357 358 360 360 361 363 359 360 360 357 354 351 351 351 351 353 355 357 358 358 358 357 353 354 352 352 354 351 348 348 350
315 324 313 307 307 305 322 327 329 325 333 335 327 308 310 319 329 333 338 340 338 335 336 338 338 339 340 342 343 343 344 346 346 348 349 351 350 350 350 351 349 349 351 345 346 347 354 354 355 354 358 355 358 358 360 358 358 357 357 360 360 360 359 357 356 354 353 356 355 355 359 367 363 362 361 360 356 353 351 352 353 353 355 355 355 355 352 351 355 351 353 349 349 349 347 348 348
327 307 301 309 304 307 322 328 328 322 329 333 323 309 312 321 328 332 337 338 338 335 336 337 338 338 340 341 342 342 344 346 347 348 349 350 350 346 351 349 349 346 351 346 346 350 352 352 356 352 355 352 354 357 356 357 359 360 361 363 358 357 358 357 356 355 355 356 356 353 356 362 363 362 362 360 358 355 354 354 355 356 356 355 354 354 352 349 349 355 354 352 348 349 347 345 348
311 307 304 304 306 308 317 324 328 326 328 330 323 309 317 319 326 331 334 335 336 334 335 336 337 339 340 341 342 342 343 344 346 347 349 350 350 345 344 351 346 347 350 354 350 350 351 352 355 351 351 350 350 359 358 356 358 357 357 356 355 354 355 356 357 357 357 354 354 353 354 361 359 359 361 362 359 358 355 358 357 358 359 355 354 353 350 350 348 351 351 352 350 348 348 347 346
305 310 304 304 305 306 309 318 325 327 323 319 325 315 317 320 326 329 330 334 333 332 333 336 337 338 340 340 341 341 342 343 343 345 348 349 349 351 351 351 348 352 347 354 354 353 354 353 353 354 354 355 356 357 355 356 357 358 357 358 360 355 356 357 357 356 355 356 355 354 355 358 360 356 357 360 358 359 356 354 360 358 357 355 353 351 349 352 352 350 348 350 350 348 347 347 346
303 305 305 303 307 309 309 312 319 325 322 319 320 318 317 320 325 328 329 332 331 331 331 333 336 337 339 339 340 340 341 342 344 345 348 349 350 351 353 353 351 355 351 352 352 353 354 356 358 359 356 356 356 355 356 356 355 355 354 353 353 353 353 354 356 356 357 356 357 355 356 355 357 356 357 357 357 358 357 356 356 358 357 355 354 350 350 353 350 349 348 348 351 349 347 348 349
308 308 305 305 303 305 307 317 322 324 319 317 316 315 316 320 324 325 328 329 329 329 330 330 335 337 338 338 339 340 341 342 345 346 348 349 350 350 351 351 354 352 350 350 352 351 352 353 354 355 355 356 356 356 355 353 353 352 349 348 349 352 351 354 352 353 353 355 357 356 354 354 354 356 356 357 357 359 357 355 356 359 359 353 348 349 348 350 349 348 347 346 346 348 350 349 350
311 310 308 306 305 306 310 316 322 325 318 316 317 316 317 320 323 324 327 326 324 325 327 329 332 335 336 337 338 339 340 342 345 347 348 349 345 347 347 347 348 351 351 350 349 350 350 351 353 352 354 356 355 353 353 352 348 346 346 346 346 349 349 352 352 352 352 355 356 355 354 354 353 353 355 356 354 358 359 355 355 356 356 353 344 345 346 347 350 349 347 349 347 345 346 348 349
309 308 307 304 307 304 310 314 322 324 317 314 317 317 317 319 321 324 326 323 322 323 326 328 331 335 336 336 337 338 340 343 346 345 348 347 344 346 347 346 347 346 349 349 348 349 349 351 351 353 354 354 355 354 354 352 349 348 346 347 347 347 351 349 348 350 352 355 356 355 354 354 352 352 355 355 358 355 355 354 353 353 354 353 352 348 345 348 347 348 349 345 349 346 346 350 351
308 307 305 305 303 309 310 315 323 322 319 314 317 315 314 318 321 324 325 323 323 326 326 328 331 332 334 336 336 338 340 341 343 345 348 345 344 345 346 345 344 347 349 348 349 349 349 350 350 353 354 354 354 356 354 352 352 351 349 348 350 350 352 352 351 355 355 354 355 356 358 357 354 354 355 360 357 356 354 352 354 354 353 355 355 346 347 348 348 349 348 347 347 349 349 354 351
305 305 303 302 306 304 299 310 321 321 318 314 317 313 314 321 323 323 325 325 326 327 328 330 332 331 332 335 337 339 340 340 341 344 345 344 343 343 344 344 344 346 346 346 347 348 349 350 349 351 353 355 355 359 358 355 356 355 355 354 355 352 352 357 356 356 355 356 356 357 357 358 358 359 360 358 357 356 355 354 355 355 354 356 353 350 349 348 348 349 349 350 349 345 347 347 352
303 308 306 304 305 304 304 303 319 321 319 321 316 310 309 315 317 319 324 329 329 328 331 330 330 332 333 336 340 341 340 340 341 343 345 344 342 341 341 343 345 345 345 345 346 347 350 349 350 350 351 355 355 360 358 356 356 353 353 352 353 351 351 348 348 349 352 355 357 354 355 357 357 360 358 358 358 356 355 352 353 354 354 354 353 351 352 353 351 350 349 347 347 346 344 345 348
300 304 308 309 308 306 307 316 314 310 309 319 314 300 301 308 316 318 321 324 325 326 327 327 330 332 333 336 338 341 341 342 342 343 345 346 344 343 342 342 343 344 344 346 347 348 349 349 350 349 351 353 353 355 355 355 354 351 351 348 345 344 344 344 344 345 348 351 353 358 358 360 361 360 357 357 357 358 353 351 352 353 354 355 354 352 352 352 350 350 351 349 349 348 344 345 344
298 299 306 308 307 306 305 308 311 302 302 312 315 298 296 304 312 316 319 322 322 324 323 327 330 330 332 336 338 339 340 341 343 344 345 345 345 345 343 341 342 343 345 347 348 348 349 349 350 350 351 351 353 353 354 355 350 350 351 349 346 345 343 344 347 351 352 354 358 354 356 358 358 357 354 354 354 358 355 354 354 353 355 354 356 351 350 351 351 352 352 350 352 351 347 341 345
297 301 305 306 306 305 304 304 307 300 309 315 315 304 298 300 305 313 321 321 320 320 320 328 328 329 330 335 339 339 340 341 341 342 344 345 345 345 345 344 344 346 347 347 347 348 348 349 350 350 352 354 353 353 352 353 351 350 350 348 349 346 346 346 350 352 353 357 354 353 355 353 355 355 356 355 355 355 356 353 353 353 354 354 356 354 350 352 349 353 353 353 351 353 349 346 346
299 305 307 305 305 304 302 299 299 304 306 301 306 313 300 301 307 318 321 317 317 319 320 326 328 329 330 334 338 339 340 341 342 342 343 344 344 345 346 346 346 346 347 346 346 347 348 351 351 351 351 353 352 354 353 352 353 350 349 348 348 350 350 349 354 358 355 356 354 353 352 351 351 354 357 357 356 354 357 355 353 351 352 351 357 357 354 352 348 351 353 350 349 350 352 350 347
306 308 308 307 308 306 303 300 301 303 297 296 301 306 296 298 307 312 318 316 316 319 321 325 329 329 330 333 336 338 340 340 341 341 342 341 342 341 342 343 342 343 345 348 348 349 350 351 351 351 351 352 354 354 353 351 352 352 347 346 345 346 349 349 350 348 350 350 349 348 350 350 349 350 355 356 353 354 354 356 356 354 354 355 358 355 349 351 351 351 352 352 352 351 353 354 350
307 309 307 300 301 299 301 299 300 295 294 294 303 307 302 296 302 309 312 313 318 320 322 325 328 329 331 333 335 337 338 338 337 338 338 338 339 339 341 340 341 341 343 346 347 348 351 350 351 350 351 353 355 353 352 350 349 348 346 346 345 345 346 345 344 344 343 345 340 339 345 341 340 339 343 354 354 355 355 358 357 355 354 356 355 347 346 346 348 351 353 354 355 351 350 351 353
308 301 298 298 298 299 297 297 297 293 288 296 303 306 306 296 300 307 318 320 320 322 322 325 327 328 331 332 334 337 337 336 336 336 337 338 338 339 339 339 339 340 341 343 348 349 352 350 351 350 351 353 353 352 351 349 348 346 347 347 347 347 347 345 343 343 341 340 340 339 339 341 339 342 341 340 347 353 353 354 358 353 352 348 345 345 345 345 346 347 346 349 351 351 350 353 351
304 301 297 294 289 291 289 291 293 290 290 298 306 307 302 300 302 308 314 318 319 324 326 327 328 329 331 332 333 337 337 336 335 335 337 337 337 338 339 340 340 340 341 343 346 350 351 350 350 349 349 351 350 350 349 348 347 346 347 347 346 347 346 346 344 344 341 338 338 340 335 336 338 339 340 340 338 342 348 348 349 348 348 350 348 346 347 346 345 346 345 346 343 342 345 348 348
300 299 295 292 290 287 285 286 291 291 296 303 305 309 298 302 307 312 313 316 320 325 328 330 330 330 331 331 334 337 336 336 335 336 337 337 337 338 340 340 340 342 343 345 347 351 351 351 350 350 349 350 350 349 349 347 348 348 346 347 346 347 345 344 339 336 339 339 337 333 334 336 340 341 336 338 340 341 342 344 343 342 343 345 346 344 345 345 346 345 346 342 340 340 341 342 344
297 300 299 295 291 289 287 288 287 289 292 297 305 300 297 299 303 314 318 321 325 327 330 330 331 332 332 333 336 337 336 335 335 335 337 337 338 339 339 340 341 343 344 346 349 351 351 350 350 349 349 350 350 349 349 348 348 349 349 348 346 343 341 339 337 338 334 335 337 335 335 336 333 333 334 339 339 336 338 339 340 339 339 340 340 338 340 338 340 344 344 342 342 342 340 342 342
300 301 299 295 296 295 291 290 289 291 293 296 300 298 302 302 312 320 321 323 325 328 329 331 330 331 331 334 336 336 336 335 336 336 337 338 338 339 340 340 342 343 346 349 350 350 349 349 349 349 349 351 351 351 349 349 349 348 347 343 343 349 348 343 344 345 344 337 334 333 332 334 337 335 337 337 338 337 337 337 338 338 338 337 339 339 338 339 340 339 338 337 336 345 340 338 337
297 300 295 298 300 300 296 299 301 298 293 295 304 303 309 312 314 317 319 321 323 326 328 329 330 330 330 334 336 337 337 336 336 336 337 338 339 339 341 341 341 342 345 348 349 349 348 348 349 348 348 350 350 351 348 345 341 339 338 337 336 335 337 339 339 340 338 339 340 337 337 340 339 336 337 341 338 339 339 337 338 336 337 338 338 340 341 340 339 338 337 336 335 337 342 340 339
298 295 297 299 304 300 295 290 291 291 290 294 301 300 302 303 300 315 317 318 320 325 326 328 329 328 328 332 335 336 337 337 337 338 338 339 340 340 341 342 341 342 345 347 349 348 348 348 348 347 347 346 345 346 342 339 340 337 336 337 339 337 335 337 338 338 341 337 336 337 340 333 335 337 339 340 336 336 339 348 336 337 339 338 339 340 340 340 338 337 337 336 337 336 336 337 338
303 301 302 298 291 292 294 293 290 289 290 291 298 301 302 301 304 312 313 315 318 322 325 326 326 326 327 331 334 336 338 338 338 338 338 339 339 340 340 341 343 344 347 348 348 347 347 346 346 345 343 343 342 342 339 339 340 338 336 337 338 338 338 337 340 342 338 337 339 337 335 332 335 340 341 336 335 335 336 337 338 337 338 338 336 337 339 337 337 335 339 339 338 336 335 335 337
305 303 298 300 296 295 296 295 293 291 289 291 294 297 295 306 308 314 314 316 319 322 324 326 326 326 328 331 334 336 337 337 338 339 339 340 341 340 341 342 342 343 344 346 345 346 345 344 344 340 340 340 340 339 341 337 340 341 340 339 339 337 339 336 339 336 334 336 335 337 337 333 334 341 335 336 335 336 337 335 336 336 336 336 336 337 337 337 337 336 337 338 337 334 334 334 336
297 297 295 298 298 300 298 300 298 295 292 290 292 292 296 303 312 316 316 318 320 324 325 326 327 326 329 332 335 337 338 338 339 339 340 341 342 341 342 342 343 343 344 344 343 343 342 341 339 340 338 338 338 339 338 337 340 338 339 334 335 334 335 340 339 339 338 337 336 344 333 335 337 337 337 333 335 335 336 337 337 341 337 335 334 336 336 338 336 335 334 335 335 334 333 334 336
300 298 295 296 294 295 294 290 300 301 297 294 292 290 297 306 317 317 317 319 321 325 326 326 327 327 329 333 336 338 338 339 340 340 341 341 341 339 341 342 340 339 340 339 340 341 339 339 338 336 339 339 336 338 339 339 340 338 336 334 335 338 338 338 339 338 340 338 336 333 336 338 334 335 336 337 337 339 339 337 336 336 336 335 335 334 336 338 335 334 334 339 337 333 332 332 332
Wind_Speed
11 7 5 6 5 1 2 1 0 1 1 3 2 1 2 2 2 4 3 4 3 5 6 11 8 5 3 3 8 7 8 4 1 7 5 2 10 12 11 14 13 11 10 9 7 7 8 10 12 13 14 14 14 14 13 13 13 13 13 13 13 13 13 14 14 14 14 14 14 14 13 13 13 13 13 13 14 14 14 14 13 12 11 11 11 11 11 11 11 10 10 9 9 10 10 10 10
8 5 5 3 3 2 1 1 1 0 1 2 2 1 3 3 2 3 2 5 5 6 10 7 8 4 3 14 8 1 9 7 2 5 6 10 14 10 13 14 14 13 10 8 8 7 7 9 12 13 14 14 14 14 14 13 13 13 13 13 13 13 13 13 13 13 14 14 14 13 13 13 13 13 13 13 13 13 14 13 13 12 12 11 10 10 10 10 10 10 10 10 9 10 10 11 12
7 7 5 3 2 0 1 0 1 1 1 1 1 0 1 4 2 1 3 4 3 2 4 7 5 6 4 4 8 1 1 6 13 10 9 14 14 9 14 14 13 12 11 7 7 7 6 9 13 13 14 14 14 14 13 13 13 13 13 13 13 13 13 13 13 13 13 13 13 13 13 12 12 11 12 12 12 12 12 12 11 11 10 10 10 10 10 9 8 8 8 8 10 10 11 12 11
8 5 7 3 1 0 0 0 1 1 1 0 1 1 1 2 2 1 5 4 3 1 1 5 6 3 1 12 6 11 6 4 5 12 10 11 7 13 14 14 13 11 9 7 7 6 5 11 14 13 13 14 13 13 13 13 13 13 12 12 13 13 13 13 13 13 13 13 13 13 12 12 11 11 11 11 11 11 11 11 11 10 9 9 8 9 9 8 8 7 6 5 6 5 7 9 11
8 5 4 2 1 1 1 0 1 0 2 2 1 2 4 4 1 5 3 1 3 3 2 2 5 2 3 6 1 2 5 8 9 3 9 8 13 14 15 15 13 11 10 8 7 7 6 15 14 14 13 14 13 13 14 14 13 13 12 12 12 12 13 13 13 14 14 13 12 12 12 12 12 11 11 10 11 11 11 10 10 9 9 8 7 6 6 5 3 2 3 3 4 5 6 8 9
6 5 1 1 1 0 0 2 2 1 0 1 1 2 1 3 1 1 2 5 2 2 3 1 5 1 4 4 3 5 6 4 7 7 10 12 17 18 16 13 13 11 10 8 7 6 7 16 15 14 14 14 14 14 14 13 13 13 12 11 11 12 12 12 12 13 13 13 12 12 11 11 11 11 11 11 11 11 10 10 10 9 9 8 7 7 6 5 4 4 5 5 5 6 7 8 9
5 3 0 2 0 0 3 1 2 1 1 1 2 1 3 3 2 4 2 1 5 1 5 4 4 3 6 2 4 3 1 6 5 9 10 16 18 17 16 14 13 12 11 9 8 6 8 17 16 15 14 14 14 14 14 14 13 12 12 12 11 11 11 11 12 12 12 12 12 11 11 11 10 10 10 9 10 10 10 10 10 9 9 9 8 7 7 8 8 7 7 7 8 8 8 9 11
2 1 1 1 0 0 3 1 2 1 3 6 2 0 2 1 3 1 2 3 2 3 6 2 2 6 4 3 5 6 4 5 12 15 19 16 17 17 16 14 13 12 11 9 8 6 14 18 17 16 15 14 13 14 14 13 12 12 12 12 11 11 11 11 11 11 11 11 11 11 11 11 10 10 9 9 9 9 9 9 9 9 9 9 9 9 9 8 9 9 8 8 8 9 9 9 9
2 2 1 0 2 1 2 2 1 1 1 2 3 3 4 0 1 1 5 2 3 2 4 4 1 2 1 7 5 2 4 11 13 18 18 18 17 17 12 14 13 11 11 10 8 7 8 16 17 17 16 15 14 13 13 14 13 13 12 12 12 11 11 11 11 11 10 10 10 10 10 10 10 10 10 10 9 9 9 9 9 9 10 10 10 9 9 8 8 8 8 8 8 9 10 10 11
1 0 1 1 1 4 1 2 3 2 2 1 3 1 1 2 1 2 5 6 4 2 2 4 8 7 6 10 7 5 3 2 16 17 17 17 17 15 15 15 14 14 12 11 8 7 7 16 18 17 16 16 15 13 13 13 14 13 13 13 13 12 11 11 11 11 11 10 10 10 10 9 9 9 9 9 10 9 9 9 10 9 9 10 9 9 8 8 8 7 8 8 8 9 8 9 9
2 0 1 1 4 2 3 1 0 2 2 4 5 1 4 3 1 2 3 4 1 1 1 2 6 3 5 3 2 1 2 2 15 17 17 18 17 16 12 13 13 13 13 13 9 8 9 10 18 18 16 16 15 14 13 13 14 14 13 13 13 13 12 12 11 11 11 10 10 10 10 9 9 8 8 9 9 9 9 9 9 9 9 9 8 8 8 8 9 9 8 8 9 9 9 9 9
1 1 0 2 1 2 1 2 0 2 1 0 3 3 1 5 5 2 2 6 2 2 3 2 2 2 7 3 2 2 3 4 10 14 17 17 14 15 14 11 12 12 13 12 10 8 7 9 9 15 18 17 15 14 14 14 13 14 13 13 12 12 12 11 11 11 11 11 10 10 10 9 9 8 8 8 7 7 7 8 8 8 8 7 7 7 7 7 8 8 8 8 9 9 9 9 9
1 1 1 1 1 3 2 2 2 3 1 3 3 4 2 5 3 3 3 2 1 4 5 5 3 1 5 3 1 2 2 1 2 14 14 13 14 13 13 12 12 13 12 10 10 8 8 7 8 8 12 18 16 14 13 14 13 13 13 12 12 11 11 11 11 11 11 11 10 10 10 9 9 8 8 8 7 7 6 6 6 7 6 6 6 6 6 5 5 6 7 8 8 8 8 8 8
3 4 3 2 1 2 3 2 0 2 1 3 1 7 7 5 4 3 3 4 3 4 1 3 2 6 5 4 1 3 2 1 3 4 13 15 12 13 14 12 13 12 12 11 9 9 8 7 7 7 9 9 8 12 13 14 13 14 13 12 13 13 12 11 11 11 10 10 10 10 9 9 9 9 9 8 8 7 7 7 7 7 7 7 6 5 5 5 4 4 6 7 8 8 8 7 7
4 1 1 0 2 2 0 4 4 3 3 5 3 8 6 4 3 4 3 5 3 2 2 1 1 1 7 9 5 5 3 2 2 3 13 13 14 14 13 12 12 11 11 10 9 9 8 7 7 6 6 6 7 6 6 10 14 13 13 13 13 12 11 11 11 10 10 10 9 9 9 9 9 9 9 9 9 8 8 8 7 7 7 7 7 6 5 5 5 4 5 5 7 7 7 8 8
4 1 1 1 2 2 1 4 2 4 2 4 5 5 7 2 5 2 2 0 3 1 1 2 1 1 6 3 9 6 6 6 4 7 12 14 13 13 13 13 10 10 9 9 9 7 8 8 7 6 6 6 5 6 6 6 11 13 13 12 13 12 11 11 12 10 10 9 9 8 8 6 7 7 10 7 9 9 9 7 8 7 7 8 7 6 6 5 4 5 4 4 5 6 6 7 8
2 1 2 2 2 1 1 2 3 3 2 3 5 6 4 4 3 1 2 4 5 1 3 3 1 1 4 3 7 7 7 7 6 9 13 11 10 10 9 9 9 8 7 8 8 8 8 8 8 6 6 7 6 5 5 5 8 13 11 13 14 13 12 12 11 11 10 9 8 8 8 5 3 4 6 4 10 6 8 9 9 8 8 7 8 7 7 5 5 5 4 4 4 5 5 6 7
2 1 2 1 1 2 1 2 2 4 7 6 6 3 8 6 3 4 5 6 4 3 3 2 4 5 3 4 5 7 5 8 7 13 12 11 9 10 9 9 10 9 9 8 7 8 8 8 8 8 7 7 6 5 4 4 5 10 6 6 6 8 10 10 8 5 7 4 9 7 4 5 4 4 4 8 5 6 7 11 10 10 9 8 8 8 7 7 5 5 5 4 4 4 5 2 1
3 1 2 1 1 1 2 3 7 6 4 7 5 6 5 6 7 4 3 4 4 3 2 3 4 4 7 6 6 7 6 8 9 12 15 15 12 14 11 10 10 10 9 8 8 10 8 7 8 8 8 7 7 6 5 4 5 4 6 6 5 9 6 7 4 6 4 5 4 4 4 5 5 5 5 6 6 10 9 12 12 11 10 9 9 8 7 7 7 6 6 6 4 5 2 3 2
3 3 1 1 2 1 3 5 7 3 9 7 7 6 5 6 3 2 4 7 4 6 5 2 4 9 9 4 4 5 6 7 9 13 13 13 12 13 12 12 11 11 10 9 9 8 8 8 9 8 8 8 8 6 5 5 4 4 5 5 5 5 5 4 5 4 4 4 5 4 4 5 5 5 8 12 10 7 7 12 13 12 11 10 10 7 7 7 8 8 8 7 5 3 4 3 1
2 3 3 4 4 4 1 5 5 8 10 8 8 5 5 7 4 3 6 6 2 2 5 11 11 10 8 7 4 5 7 7 9 11 11 11 10 10 12 12 12 11 10 9 7 9 9 9 8 7 7 6 7 6 6 6 5 4 5 5 5 5 4 3 4 4 4 5 6 5 6 5 5 5 4 4 4 5 4 4 5 5 4 4 9 3 3 4 5 2 3 4 1 2 4 3 2
3 2 7 9 5 3 6 5 8 8 6 9 6 9 6 6 3 5 9 7 6 8 8 4 9 10 11 9 7 4 6 7 8 9 8 11 12 11 9 9 9 10 9 9 9 9 10 9 9 7 7 7 7 6 6 6 7 5 5 5 4 4 4 5 4 5 6 6 6 6 6 6 6 6 5 5 5 5 6 5 4 4 4 4 4 4 3 4 3 4 3 2 2 2 3 3 3
3 3 6 8 6 6 3 5 7 7 6 7 9 7 7 9 5 8 12 6 5 7 7 7 6 7 7 8 7 6 6 7 8 7 6 11 9 11 10 10 11 10 10 10 10 9 10 10 10 9 9 8 8 6 5 6 6 5 5 5 5 5 5 6 6 6 7 7 7 6 6 6 6 5 5 6 7 5 6 6 6 4 5 5 4 4 4 4 4 4 4 3 2 2 3 3 4
8 3 4 5 8 8 6 4 6 5 7 7 5 5 8 8 6 5 8 3 5 8 8 7 6 7 8 9 8 9 8 8 8 5 6 12 8 11 11 11 11 9 10 11 11 10 10 13 12 11 9 8 7 8 6 7 6 6 6 6 7 7 6 7 7 7 7 7 7 7 8 7 7 6 7 7 7 5 6 5 5 5 5 5 4 4 4 4 4 4 4 4 4 3 4 4 3
6 3 4 5 6 7 8 7 6 4 4 3 7 6 7 9 6 8 6 4 5 7 7 8 8 7 6 6 7 7 7 6 6 5 4 4 6 7 7 7 10 10 11 11 11 11 12 12 13 12 10 10 8 8 8 7 6 7 6 6 7 8 7 7 7 6 6 7 8 8 7 6 6 6 7 8 5 7 7 4 5 6 5 5 5 5 5 5 5 5 5 5 5 4 4 4 3
4 7 5 7 6 9 8 6 5 5 3 4 5 4 4 6 7 4 7 4 6 9 9 9 9 8 7 8 6 5 5 5 3 4 7 7 5 6 6 7 4 11 11 12 12 11 11 12 13 13 12 11 10 9 8 7 7 7 8 8 7 6 7 8 5 6 6 6 7 8 8 6 5 7 6 6 6 7 6 5 6 6 6 5 5 6 5 5 5 4 4 4 5 5 5 5 3
3 7 10 10 10 10 6 8 5 3 3 2 5 3 4 4 5 1 2 8 7 8 9 10 10 9 8 7 7 7 7 7 6 3 2 3 3 6 7 8 5 5 5 8 8 6 11 11 12 12 12 11 9 9 8 8 8 8 8 8 6 7 8 7 6 7 8 8 8 7 6 4 5 4 4 3 3 6 5 6 6 6 5 6 5 5 4 5 4 5 5 5 5 5 5 5 4
5 7 9 8 10 8 7 6 6 4 1 1 5 3 1 2 1 7 8 8 10 11 9 10 9 9 8 7 7 6 7 5 4 7 8 8 7 5 8 9 8 6 8 7 7 3 9 9 12 13 11 10 10 10 9 9 8 8 8 7 8 9 8 7 7 8 8 8 8 7 6 5 4 5 5 3 1 1 4 5 6 6 6 5 5 5 4 4 5 4 4 3 4 3 4 4 4
3 7 4 6 8 5 4 9 5 4 2 4 2 3 0 3 4 6 13 10 10 11 10 8 9 8 8 7 6 6 7 6 4 5 5 5 4 4 8 10 9 7 7 8 8 3 8 9 9 8 4 1 9 8 9 9 8 7 7 8 9 8 8 8 7 4 3 6 5 5 6 6 3 6 5 5 3 3 4 4 5 5 5 4 4 4 5 4 4 4 3 3 3 2 2 3 3
3 2 4 3 3 3 7 1 5 4 3 7 4 1 6 6 6 8 12 11 10 10 9 9 8 8 8 8 7 7 6 6 6 6 5 5 5 5 7 5 3 8 8 7 8 5 6 8 7 7 4 1 2 5 4 7 6 6 4 2 2 3 0 2 3 3 3 3 2 2 1 2 3 4 6 4 4 4 4 4 4 4 4 4 4 3 4 3 4 4 4 4 4 4 4 3 4
2 0 4 3 4 3 6 4 7 5 2 9 5 1 6 5 6 9 13 14 13 12 10 10 9 9 8 8 8 8 8 7 8 6 6 6 4 3 4 3 6 11 3 8 11 9 8 9 8 7 5 5 2 3 3 3 3 4 3 3 3 3 3 4 2 3 4 3 3 4 3 3 2 2 3 6 4 4 4 4 3 4 4 3 4 3 4 2 3 4 4 5 3 3 3 3 4
1 1 2 2 3 2 4 5 11 7 1 7 6 1 6 4 9 9 14 13 13 12 11 11 10 9 9 8 8 8 8 7 6 5 6 6 5 7 6 5 6 2 8 8 10 9 10 10 9 10 7 6 4 3 3 2 4 4 3 3 3 3 3 3 4 2 2 3 3 3 3 2 2 0 2 4 5 4 5 5 5 3 3 4 4 3 3 4 2 2 3 3 4 4 4 4 3
1 3 3 2 2 3 1 8 9 6 6 3 7 3 0 3 7 7 9 12 12 12 11 11 11 12 10 9 8 7 6 6 5 5 5 5 4 6 6 4 8 4 7 2 8 8 9 9 10 11 10 9 6 3 4 3 3 4 3 3 3 3 3 3 2 2 3 3 2 3 2 1 1 2 2 2 3 3 4 5 5 6 5 4 3 2 1 0 1 1 1 1 1 3 3 4 4
4 1 4 3 4 3 4 2 6 3 7 3 5 2 7 4 9 8 7 11 11 11 12 12 11 9 10 8 8 8 7 8 9 8 7 5 4 5 7 12 10 11 11 3 4 8 9 9 8 8 8 7 5 5 4 4 3 4 3 3 2 3 3 2 1 2 3 3 2 1 1 0 1 1 2 2 1 1 1 3 5 6 5 4 3 3 2 1 2 3 3 3 4 4 3 4 5
5 2 3 3 2 10 8 6 7 6 3 9 4 6 8 5 8 8 9 9 11 12 11 11 11 10 10 8 8 8 7 8 9 7 6 5 5 4 6 8 12 11 8 4 5 5 7 7 6 6 7 7 6 5 4 4 4 4 3 3 3 3 2 2 1 2 2 1 2 2 1 0 0 1 2 2 1 1 2 1 3 4 5 4 3 3 2 1 3 2 4 4 4 4 4 4 4
9 7 4 3 4 5 5 9 4 15 6 4 5 8 8 4 8 6 6 7 10 10 8 8 9 10 10 9 8 9 8 10 7 6 6 5 3 2 1 3 5 6 5 5 5 5 7 7 6 6 6 7 6 5 5 4 4 3 4 2 2 1 1 1 1 0 0 2 0 0 1 0 0 0 0 1 2 2 3 2 1 2 4 6 4 3 3 3 4 5 5 6 5 5 4 5 4
12 13 6 5 3 6 4 4 7 12 7 7 8 6 3 6 9 8 6 4 5 5 6 7 8 9 9 9 9 9 9 10 6 7 7 6 8 3 3 3 5 4 5 5 5 4 5 6 7 7 5 6 7 6 5 5 4 2 2 1 2 2 2 1 1 1 1 0 0 1 1 1 1 2 1 1 2 3 2 2 1 1 3 8 7 5 6 4 5 4 4 3 5 5 5 4 4
12 11 8 6 3 7 6 10 10 10 8 6 6 3 4 6 5 6 4 4 6 6 5 8 9 9 9 10 9 8 7 2 5 5 7 7 7 6 4 3 3 3 1 2 5 4 4 3 4 5 4 4 4 5 5 3 2 4 4 4 2 1 1 1 1 2 2 1 1 1 2 2 2 2 2 2 3 3 3 2 2 3 2 2 7 8 4 7 6 5 3 4 4 4 4 4 4
10 11 7 7 4 6 3 6 11 9 6 7 5 3 3 5 4 4 6 7 4 5 6 8 9 10 8 8 8 6 6 5 6 7 8 7 8 7 4 5 3 2 1 1 1 3 5 4 4 3 4 4 4 3 4 4 2 2 2 2 2 0 1 1 1 2 2 2 2 3 3 4 4 4 3 3 4 2 2 2 3 3 3 1 3 9 4 5 5 7 6 5 3 4 4 2 5
8 8 5 8 5 5 3 6 14 9 7 6 5 5 3 1 0 4 5 7 3 4 3 8 10 11 10 11 10 9 8 9 9 9 9 8 8 7 5 6 8 5 2 2 1 3 4 4 4 5 4 3 4 3 3 3 4 3 3 3 0 1 1 1 0 0 1 1 3 4 5 4 5 5 5 5 3 2 2 3 3 3 1 0 2 7 7 6 6 4 6 6 4 4 4 2 4
5 9 8 6 8 6 5 4 10 9 4 5 8 2 2 1 4 3 5 4 4 2 4 4 4 7 7 5 7 10 11 10 9 8 8 8 9 10 9 7 7 7 6 5 4 4 4 5 4 4 4 3 3 4 4 4 5 4 3 3 2 2 2 2 1 1 2 3 4 4 5 5 5 5 5 4 3 3 3 3 3 2 1 1 2 1 2 3 4 6 6 6 5 4 3 1 2
7 6 13 14 11 7 6 20 14 3 1 3 11 2 3 3 4 7 4 3 4 4 6 5 5 4 7 8 9 7 8 9 11 10 10 11 11 9 9 10 9 8 8 7 6 5 5 5 4 3 3 3 3 3 4 4 4 5 4 3 2 2 2 1 3 4 3 3 4 3 3 2 2 3 4 3 3 3 3 3 3 3 2 2 2 3 3 3 4 6 7 6 7 4 3 2 2
4 7 6 11 7 5 5 9 11 5 7 10 6 4 2 3 4 5 4 5 6 3 6 6 6 6 8 9 9 9 10 8 7 7 8 7 7 8 8 10 12 12 11 8 6 6 5 5 5 4 4 4 3 3 3 4 4 3 4 5 4 4 4 3 2 3 3 3 3 4 4 2 1 2 3 3 3 4 3 3 4 2 2 2 2 2 1 3 3 4 2 3 4 4 3 3 4
8 8 5 3 3 3 4 11 9 4 2 2 7 2 3 1 6 5 6 7 5 4 4 6 7 7 7 9 10 9 10 10 9 9 10 10 10 11 11 9 5 4 6 9 8 7 7 6 6 5 4 4 3 4 3 3 4 4 4 4 3 4 4 3 3 3 2 2 3 3 3 4 2 1 3 3 4 3 3 3 3 2 3 3 2 2 4 4 1 3 3 1 3 4 5 5 2
7 9 6 1 3 4 5 7 7 5 8 2 6 2 3 2 3 0 8 6 5 8 7 6 7 7 9 10 10 10 11 11 11 9 9 10 9 9 8 8 7 4 1 2 6 8 8 7 6 6 5 5 3 4 4 4 4 4 5 3 3 2 3 2 1 1 2 2 3 2 2 2 3 3 2 3 3 3 2 3 2 3 3 4 2 2 4 3 4 6 4 3 5 4 3 3 4
9 12 3 3 1 2 2 3 8 2 3 5 9 5 2 1 2 1 2 4 8 10 10 9 9 9 10 10 9 10 9 8 6 7 7 6 7 6 4 7 7 6 6 4 3 4 7 7 8 7 6 5 5 5 5 4 4 4 4 3 3 3 1 1 1 2 3 1 2 3 3 3 4 3 3 4 1 1 2 2 2 3 4 3 2 2 3 4 5 5 6 7 4 4 4 3 4
4 0 1 4 5 2 3 5 4 5 0 6 9 7 6 1 4 6 7 8 12 9 3 3 5 6 9 10 11 10 9 8 7 6 5 5 4 5 5 7 4 1 2 5 7 5 6 8 8 8 7 6 6 6 5 5 3 4 4 4 3 2 2 2 3 3 2 1 2 3 3 3 2 2 2 3 1 1 3 3 4 4 3 3 1 2 1 1 1 2 2 2 3 4 4 4 4
2 1 2 5 7 7 5 3 4 1 4 9 3 8 5 3 1 6 10 4 7 13 12 12 11 11 10 9 9 10 9 9 8 7 6 7 6 5 5 6 4 5 3 3 5 6 6 7 8 7 7 6 6 6 5 4 4 3 3 3 3 3 3 3 3 4 2 2 2 2 3 4 2 1 1 2 3 4 4 4 4 2 1 4 4 2 1 0 1 0 0 1 2 3 3 3 4
2 2 6 1 3 3 3 4 1 4 7 4 6 11 5 0 6 8 10 12 5 10 12 15 15 12 10 10 11 9 9 10 9 7 7 7 8 8 7 6 5 5 5 5 5 7 7 7 8 8 7 6 6 6 5 4 3 3 3 3 3 2 2 2 2 2 3 1 1 0 2 3 2 3 2 4 3 2 2 1 1 1 1 1 2 2 1 2 2 2 3 2 0 1 2 3 4
3 2 2 4 1 1 2 3 1 3 8 3 4 3 2 2 4 3 5 8 10 10 11 13 14 14 11 10 10 11 10 10 9 8 8 8 8 8 7 8 8 6 6 7 7 6 6 7 8 8 7 6 5 5 5 4 4 3 3 3 4 1 2 1 1 2 1 1 1 1 1 2 1 2 4 4 2 3 5 4 4 3 3 3 2 2 1 2 1 0 1 2 3 4 2 2 3
3 2 6 7 6 3 2 2 3 3 7 4 1 2 4 4 4 2 6 2 3 7 8 10 11 12 9 9 12 12 11 8 9 8 9 9 8 9 8 8 8 7 7 6 6 6 6 7 7 7 6 5 5 5 3 4 4 3 3 3 2 2 3 4 3 2 3 1 0 1 1 1 2 2 3 3 4 4 3 3 3 3 2 3 3 4 4 3 3 1 1 2 3 3 4 4 3
2 4 7 4 6 6 4 7 5 3 1 0 3 1 2 2 2 2 2 3 3 5 7 9 10 9 9 11 12 11 10 9 8 8 7 7 8 7 8 7 7 7 8 6 7 6 6 7 6 7 8 6 5 5 4 4 3 3 2 3 3 4 2 1 2 2 0 1 1 0 2 3 3 3 1 2 2 3 3 3 3 2 2 4 4 4 4 3 2 2 2 2 3 1 3 3 3
3 3 4 9 3 4 1 2 1 3 4 2 0 2 1 3 4 5 4 4 4 6 8 9 11 11 11 11 11 11 10 10 8 8 8 8 7 7 8 8 7 6 6 7 7 7 7 6 6 7 7 5 5 5 4 3 3 4 4 4 4 4 3 1 1 0 1 0 1 2 1 3 3 4 3 1 2 2 2 2 3 4 4 3 4 2 2 2 1 2 2 3 3 3 2 3 3
3 1 9 2 2 4 3 3 2 1 2 2 2 6 2 2 2 1 2 1 2 6 7 9 10 10 11 11 11 11 11 11 10 9 9 9 9 9 7 7 8 8 7 7 7 6 6 5 5 6 5 6 5 5 5 5 5 5 4 3 2 3 3 3 2 2 0 1 3 4 1 3 2 2 2 1 2 1 1 2 3 3 2 3 1 0 0 1 2 3 3 3 3 2 3 3 3
9 7 3 2 0 1 3 2 0 0 1 3 0 1 0 4 4 3 5 7 6 5 6 8 9 9 10 10 11 10 9 7 7 8 8 7 7 7 8 7 7 7 6 7 6 6 6 4 5 5 5 5 6 5 5 4 5 4 4 4 4 3 3 2 1 1 2 2 3 3 1 2 1 2 3 1 1 1 1 3 3 3 2 0 1 2 1 0 0 1 1 2 3 3 3 4 4
1 5 3 0 3 3 0 5 4 4 3 2 1 2 4 6 6 12 11 9 9 8 7 9 10 9 10 9 10 10 10 10 8 8 8 8 8 8 10 9 9 8 8 8 8 7 7 6 6 5 5 5 5 6 5 5 3 4 3 3 3 4 3 2 1 0 0 2 2 1 1 1 3 1 1 2 4 3 1 3 2 3 1 2 3 1 0 1 1 0 1 2 3 2 2 3 4
3 1 0 0 1 3 4 1 3 3 4 3 5 2 5 6 5 10 11 11 11 12 11 8 7 7 10 11 11 10 10 10 10 9 9 9 9 9 9 9 9 8 8 8 8 8 7 6 6 6 7 5 6 5 5 4 4 4 4 4 4 4 2 1 0 1 2 3 3 0 3 3 2 2 1 3 4 4 4 3 2 0 1 3 3 3 2 2 2 2 1 1 2 1 2 3 3
9 10 8 8 5 3 2 6 2 2 3 3 5 4 5 8 4 8 9 8 9 10 12 8 7 8 11 11 11 11 10 11 12 11 11 10 7 8 9 9 8 9 8 9 8 8 7 6 6 6 6 5 5 4 5 4 4 4 4 4 4 3 3 1 1 1 2 2 3 0 1 1 2 2 0 3 3 2 2 1 0 1 2 3 4 4 3 2 3 3 3 2 2 2 2 3 3
Wind_Direction
168 165 117 121 90 127 109 133 76 223 200 223 276 170 233 31 44 300 341 18 21 20 355 336 328 190 166 191 117 115 17 136 228 148 203 151 133 140 134 130 132 134 135 142 150 151 150 150 148 144 142 141 139 138 136 136 135 134 131 129 126 125 124 125 127 127 127 127 127 128 129 129 131 133 134 135 136 137 138 140 144 147 152 156 160 160 160 165 176 183 188 191 187 188 188 182 167
161 119 94 100 98 110 267 195 122 107 227 298 238 131 315 359 54 27 32 29 358 346 334 317 340 2 88 111 129 137 13 19 327 118 82 120 129 129 131 136 138 136 138 142 145 150 152 150 150 146 143 142 139 137 138 137 136 134 131 130 128 127 125 126 126 126 127 127 127 127 129 132 133 135 137 136 136 136 138 141 143 147 151 157 158 159 164 170 180 180 181 181 184 184 180 184 173
142 129 98 106 85 329 63 323 72 295 278 262 287 153 9 39 50 317 66 44 340 352 328 309 313 346 37 32 43 21 115 24 96 96 106 133 128 143 138 137 136 135 136 141 144 150 151 152 153 148 144 141 139 139 138 138 138 135 134 133 131 128 127 127 127 126 126 125 124 125 126 129 130 134 137 135 135 136 138 138 144 151 157 162 163 161 162 172 182 186 181 179 179 180 178 168 182
134 154 143 174 66 43 68 318 109 143 251 297 292 328 58 97 103 335 36 15 310 22 32 41 34 281 42 77 106 80 62 65 77 126 129 152 143 139 137 136 135 133 134 142 144 150 151 156 154 147 142 141 142 141 141 141 140 137 136 133 131 129 129 131 130 129 127 127 127 127 126 126 130 131 132 132 131 132 133 137 141 147 154 159 163 161 164 168 179 192 179 180 183 181 187 175 172
144 164 148 153 137 330 116 43 168 29 357 343 286 321 44 104 27 16 47 276 290 30 343 178 100 244 142 117 127 80 142 114 114 65 114 115 130 134 135 134 133 137 141 143 147 149 157 156 151 144 144 146 147 148 146 143 141 138 136 134 132 132 133 134 133 132 131 130 129 128 129 129 130 131 133 134 133 135 137 138 143 147 151 156 155 160 158 160 171 208 215 197 201 191 199 195 189
120 135 18 99 228 121 57 33 351 350 260 289 317 338 318 70 50 153 181 223 83 45 303 310 104 236 52 353 28 94 134 136 128 104 118 136 136 135 133 132 135 139 142 146 149 153 156 155 148 146 148 149 150 151 146 143 141 138 135 135 134 134 135 135 134 131 131 131 131 131 129 129 130 134 135 135 138 137 140 143 147 150 151 150 157 158 160 164 177 191 217 212 198 209 204 201 201
146 112 3 37 3 60 105 125 299 317 43 269 8 257 7 68 170 234 261 260 16 141 23 32 323 95 72 320 54 11 5 125 119 125 129 134 132 133 133 135 137 141 144 144 151 157 161 153 150 149 150 151 151 151 145 143 139 136 138 138 138 139 138 136 133 131 131 133 133 132 131 130 133 134 135 134 136 141 143 146 149 151 150 153 155 163 168 171 176 183 195 205 195 205 209 202 199
49 102 189 124 255 67 45 35 358 336 48 346 19 299 91 338 236 208 3 65 11 21 344 350 22 93 71 343 107 346 29 76 114 122 130 132 130 133 135 139 139 142 142 144 152 163 161 152 154 153 151 150 154 152 147 143 139 140 142 140 142 142 141 139 135 134 134 133 134 135 135 136 136 135 136 136 138 142 146 148 149 153 157 158 163 169 173 171 169 177 189 199 192 196 207 205 194
31 87 310 64 11 46 61 43 288 132 4 293 34 24 67 88 308 320 62 35 134 30 345 328 275 90 93 57 44 303 27 112 121 129 128 129 134 137 139 143 142 142 142 147 156 165 156 155 155 154 151 150 153 152 149 148 146 145 144 144 143 142 142 139 138 137 136 137 137 137 138 139 141 140 141 146 146 147 149 149 153 156 163 167 167 168 171 173 177 183 189 194 186 196 199 200 192
76 39 261 140 119 26 42 346 32 335 18 277 57 328 190 203 91 140 121 77 60 1 14 352 58 102 115 89 94 19 56 87 131 129 131 132 136 140 143 146 144 141 144 150 160 160 155 158 156 154 153 151 152 152 153 154 150 149 150 148 146 145 141 141 140 139 139 139 140 140 141 142 144 147 149 151 154 157 157 155 152 159 164 167 166 169 172 174 179 186 187 189 190 196 196 196 196
226 17 222 54 38 46 44 283 16 321 16 103 53 91 348 322 45 97 75 107 10 356 279 314 64 47 96 65 28 223 314 173 139 138 137 138 141 146 144 138 139 141 147 152 157 157 165 156 159 156 155 154 153 153 156 159 157 152 153 152 149 147 147 147 143 142 141 142 143 144 143 144 147 151 153 155 158 161 162 161 158 162 168 168 169 172 178 178 178 185 179 178 186 180 185 189 195
291 200 284 68 106 115 261 144 68 80 186 27 91 120 260 318 322 88 98 113 163 128 57 307 150 159 75 99 78 318 14 96 146 142 144 147 145 137 131 136 140 141 148 150 154 161 161 160 159 160 157 156 154 154 160 162 162 156 155 155 153 151 150 149 147 145 148 149 150 148 147 150 152 153 156 159 160 163 164 166 165 167 171 170 172 176 178 180 178 175 173 173 178 177 183 185 186
218 132 89 74 216 106 141 90 154 130 40 331 124 92 109 274 206 186 92 97 203 111 46 6 138 95 100 113 227 325 56 228 168 156 140 138 135 132 133 135 141 143 145 150 156 162 159 162 160 163 160 157 157 158 161 165 166 162 159 155 155 156 154 155 152 154 154 154 153 153 154 157 160 162 163 164 164 167 172 175 177 174 176 173 174 175 186 190 188 178 168 168 168 181 176 172 172
187 190 124 312 100 130 136 153 140 99 1 236 192 146 195 198 221 208 154 100 53 81 92 289 65 102 91 113 57 161 223 279 109 168 138 139 133 129 131 134 142 145 147 156 159 161 164 162 164 165 163 156 158 161 165 167 172 166 160 162 162 162 164 159 160 159 156 157 158 158 159 161 164 167 171 172 173 174 178 185 188 186 180 181 181 181 189 194 201 197 170 167 165 174 169 164 168
213 203 85 72 341 50 208 125 187 143 162 198 204 144 183 243 205 219 220 122 75 82 143 290 169 78 184 154 175 196 198 155 161 170 137 136 130 129 130 136 141 146 152 158 160 162 166 166 165 168 162 160 163 160 167 169 172 170 167 169 170 170 167 165 166 166 164 164 164 164 165 167 168 170 172 175 179 182 185 191 195 193 190 187 187 182 192 198 211 206 192 171 163 169 169 164 163
206 84 99 73 325 107 11 89 109 108 161 195 194 154 129 135 205 200 237 202 139 116 159 140 325 194 149 163 158 167 149 146 144 121 135 136 131 128 135 138 143 149 158 162 163 168 167 168 169 169 165 169 168 167 169 170 173 178 174 175 175 176 175 174 175 172 172 171 169 171 173 175 174 177 177 177 180 185 188 191 202 201 193 192 190 184 184 194 213 217 201 184 172 172 169 168 167
222 91 13 15 21 60 300 135 143 139 187 144 144 153 134 174 232 61 36 71 105 46 55 8 344 45 128 151 151 139 142 148 113 129 136 140 143 143 135 138 142 151 161 168 169 169 172 173 174 171 175 172 173 172 174 171 177 176 182 184 180 179 182 182 181 182 180 180 177 179 180 176 190 192 187 183 186 184 189 194 203 206 202 193 195 189 183 195 213 226 218 191 183 187 180 173 180
113 172 130 19 169 67 239 145 167 154 139 161 165 157 126 123 142 119 81 56 56 67 65 39 48 52 82 101 106 132 142 140 140 137 147 151 151 141 144 146 151 160 165 169 177 172 175 181 180 176 175 176 172 173 179 179 192 175 177 194 189 185 187 188 186 183 190 201 188 193 177 183 196 208 205 192 197 193 193 195 200 206 203 198 196 195 189 188 204 227 236 216 195 187 190 114 199
148 135 83 163 172 215 154 148 127 134 169 167 168 154 140 153 145 177 108 150 133 90 32 35 87 67 77 84 106 133 147 148 152 153 155 160 157 151 153 152 156 158 168 173 178 177 181 182 183 181 179 175 174 176 180 188 201 169 181 186 188 194 196 191 192 189 193 194 214 211 198 200 200 215 212 203 199 202 202 198 199 202 206 201 199 200 195 195 199 208 229 235 208 199 117 106 97
228 116 82 264 203 188 146 148 161 148 146 157 148 169 132 161 149 158 150 159 158 149 147 67 148 148 140 115 113 142 157 153 157 160 163 163 160 155 154 157 160 168 169 177 175 177 178 185 188 188 181 177 175 179 177 187 198 184 184 185 185 191 202 199 192 201 195 201 212 216 216 215 216 216 228 218 209 208 213 204 199 198 203 206 202 201 202 203 205 200 214 225 226 90 130 124 124
183 82 162 187 183 117 207 132 136 137 149 158 159 154 137 180 162 145 140 114 252 244 208 163 172 169 153 131 137 167 161 158 162 164 165 164 162 159 161 163 166 167 169 167 173 182 180 183 185 190 187 184 180 182 180 188 188 184 186 188 186 191 202 217 202 207 210 211 214 216 220 216 220 223 226 239 223 199 213 240 212 198 197 203 208 185 186 190 199 209 211 221 173 151 135 167 143
82 153 169 163 171 92 180 160 146 150 158 148 152 143 191 162 126 155 155 150 201 206 210 246 164 166 155 150 162 173 167 160 168 167 173 165 164 163 163 161 162 163 159 168 179 181 183 183 187 187 187 191 188 188 186 188 186 190 189 193 187 194 199 213 217 215 220 220 218 217 221 219 222 222 216 221 237 201 197 210 217 207 195 196 211 183 203 193 185 185 199 202 207 203 189 164 179
96 135 156 173 172 137 187 154 157 137 150 154 153 188 125 161 177 178 174 181 223 192 180 183 191 163 144 140 147 165 170 170 167 167 178 169 161 167 167 166 165 168 170 173 176 181 179 182 188 186 189 190 191 193 186 190 195 195 193 196 192 204 201 208 217 214 218 220 220 216 215 220 221 222 220 219 223 210 207 195 190 196 199 196 205 179 209 213 192 189 193 196 184 209 236 198 174
131 194 171 155 136 131 141 137 139 154 149 165 174 143 148 165 160 181 182 247 175 150 158 175 151 120 133 148 164 172 178 175 173 178 189 176 171 166 171 171 174 168 170 173 176 178 180 184 187 188 189 190 191 192 186 195 195 196 201 203 209 209 201 213 216 215 215 222 222 217 213 213 210 215 221 222 215 204 221 196 173 183 200 204 206 183 198 220 211 195 188 174 174 201 223 233 184
115 152 189 134 99 122 121 120 124 134 143 145 130 148 180 165 163 138 197 170 121 128 128 137 138 133 138 151 166 171 184 188 167 193 177 199 186 155 161 163 175 170 176 174 178 177 185 185 183 187 186 194 193 191 191 195 195 199 203 207 213 208 210 216 217 216 219 221 224 221 213 207 211 211 221 226 193 210 215 182 177 186 191 199 199 199 194 207 212 194 181 177 173 183 210 234 221
161 177 148 136 134 128 131 112 130 132 122 127 116 198 187 196 132 132 175 161 144 123 115 131 138 145 156 162 165 173 185 205 171 186 179 188 181 155 163 161 152 180 185 177 179 181 183 183 181 185 186 191 192 191 195 192 195 198 205 211 212 209 218 216 206 213 225 224 228 223 220 201 180 206 219 223 204 213 199 183 177 185 190 187 191 200 197 192 199 193 185 180 179 177 186 212 208
176 147 151 147 151 132 158 135 157 144 121 185 130 165 167 212 130 167 190 162 144 124 132 143 153 167 172 168 167 178 185 202 182 178 220 180 205 162 170 175 165 154 167 172 173 188 181 179 178 185 187 189 190 195 193 198 193 200 205 211 205 210 218 213 199 214 216 216 222 222 231 215 168 181 195 238 193 205 188 182 176 177 184 188 184 196 183 192 199 193 190 194 196 178 186 190 183
134 120 131 136 148 139 150 131 156 121 86 121 131 178 203 217 98 185 166 170 150 146 149 155 160 168 171 172 175 175 190 206 176 166 164 184 189 167 174 181 194 163 153 180 172 190 172 171 173 185 185 190 189 196 196 200 197 203 206 214 209 209 214 211 201 218 216 212 218 220 221 218 170 142 135 142 99 85 157 170 166 169 186 183 181 183 175 173 192 198 192 197 218 193 175 183 185
149 110 108 142 135 131 171 150 183 132 170 142 139 59 242 169 218 181 161 158 157 154 159 164 169 170 170 171 177 184 194 197 192 177 183 177 162 181 168 182 185 176 177 167 173 188 152 127 178 172 156 224 191 183 195 204 197 194 205 204 206 204 209 195 186 180 183 207 220 232 207 191 144 125 126 130 131 124 134 143 162 176 173 167 175 173 164 156 171 169 186 188 212 231 198 195 184
111 58 132 83 126 154 217 135 166 132 185 144 105 215 267 235 232 160 157 158 153 146 167 173 177 174 177 175 181 194 198 196 202 194 183 178 165 186 157 163 148 181 171 160 164 179 148 162 174 167 153 349 214 149 169 199 181 176 181 126 116 133 353 57 53 79 101 109 119 104 105 111 110 116 121 121 130 128 142 154 153 168 169 156 142 127 146 163 163 168 179 176 206 216 229 213 195
182 279 61 154 104 264 205 193 181 154 203 127 101 182 265 263 199 163 165 161 155 164 172 178 175 178 181 183 183 192 202 201 202 194 187 183 165 83 17 16 17 346 199 165 174 175 153 164 164 163 176 179 271 166 146 158 135 137 125 99 77 86 82 92 68 71 68 60 66 50 27 46 59 98 120 130 137 142 142 151 178 183 167 153 140 135 139 159 175 183 176 190 206 211 248 249 227
340 35 288 291 123 275 236 262 171 163 203 133 102 214 231 228 190 176 171 165 160 163 177 178 174 181 182 183 188 190 201 200 204 199 192 192 167 138 155 152 117 233 298 182 176 170 165 164 160 159 182 179 206 226 128 144 120 113 103 107 102 98 100 93 100 95 82 64 55 48 24 26 55 32 132 125 133 152 156 164 190 189 180 158 143 139 160 186 178 160 178 194 211 218 211 251 256
7 181 261 177 114 185 200 242 209 183 117 109 161 194 24 280 220 193 175 167 165 167 177 183 180 179 179 179 183 188 187 201 203 207 203 190 177 157 160 133 129 197 284 103 171 164 161 167 161 167 184 180 195 161 130 130 116 108 105 102 107 99 93 93 93 92 70 68 66 63 20 25 38 17 27 89 121 150 161 163 177 183 179 171 156 129 138 330 48 350 328 257 236 253 222 233 243
278 120 209 203 160 187 220 273 225 244 144 175 193 185 221 206 188 203 187 165 166 168 181 184 179 177 181 179 180 186 187 190 202 202 201 191 183 169 169 158 164 162 215 223 150 146 151 163 168 171 173 169 168 157 140 125 113 103 94 92 94 79 70 65 77 95 108 127 134 119 102 48 63 47 17 16 116 172 181 175 165 173 168 154 154 142 148 112 156 190 242 238 221 226 227 227 239
236 174 209 270 219 181 201 151 228 150 209 159 187 229 247 248 182 196 196 174 162 178 181 178 178 176 178 180 185 188 189 194 208 201 189 182 174 176 172 165 167 159 169 165 122 116 114 130 137 135 139 145 144 129 118 104 94 79 68 65 67 59 49 38 37 81 105 123 112 132 150 125 37 41 24 11 327 248 240 207 155 165 156 122 112 58 8 132 161 219 239 259 256 233 229 241 243
257 273 189 181 147 225 221 213 153 162 154 170 176 211 231 205 186 199 203 174 172 188 182 172 173 173 173 178 187 185 192 203 203 187 181 164 117 28 222 172 117 99 116 135 122 116 115 118 118 122 136 136 129 127 122 113 100 93 98 61 52 33 45 79 18 20 9 84 72 124 124 124 352 37 37 11 336 262 220 213 169 153 146 111 50 286 203 204 209 204 229 225 235 250 246 252 261
256 268 273 254 211 269 237 191 182 162 127 200 207 224 253 192 185 195 195 183 180 184 165 176 176 169 172 179 183 186 188 202 181 176 172 137 108 172 275 36 48 89 114 131 127 128 132 132 134 137 144 145 141 140 138 139 124 100 47 76 209 222 195 146 120 286 310 325 163 298 305 292 331 334 325 331 283 273 238 223 192 188 167 134 149 259 286 240 229 198 229 232 227 235 242 225 244
259 264 283 296 171 250 204 191 163 167 142 229 216 184 253 208 193 200 184 149 217 211 171 180 175 170 175 179 181 183 191 121 132 154 158 133 125 135 171 177 139 164 85 121 149 150 111 100 115 129 134 135 140 145 147 143 148 172 160 193 186 195 196 164 250 279 261 240 218 222 253 267 264 251 251 233 242 234 259 278 258 246 226 183 146 155 194 266 282 290 235 254 243 232 245 202 201
263 253 249 290 251 239 300 179 151 160 128 229 176 174 249 233 206 196 179 186 220 218 174 178 164 171 172 174 175 164 138 154 162 176 168 151 149 152 151 146 182 206 84 139 136 110 108 114 117 126 135 142 146 151 142 144 136 151 134 175 154 155 257 213 197 233 226 220 237 236 229 231 228 237 232 229 223 236 233 259 263 243 243 229 121 103 159 183 169 224 245 244 231 230 251 206 184
242 259 279 253 237 166 260 190 153 163 165 208 158 121 262 305 112 202 213 182 221 222 179 157 168 167 170 174 165 154 145 147 165 175 170 151 153 162 161 164 179 180 159 177 101 110 120 131 143 147 151 144 151 169 148 132 123 108 82 107 77 102 168 159 249 351 266 285 266 240 239 232 223 220 208 203 202 237 245 247 266 275 244 143 152 144 181 179 180 190 239 235 224 230 207 230 200
227 219 222 249 258 237 190 176 136 153 356 87 91 62 321 266 147 217 244 231 197 178 88 107 165 162 153 137 146 152 153 156 165 174 166 153 162 173 182 180 172 179 181 182 168 140 145 157 170 159 150 149 152 173 136 124 109 84 71 48 55 49 25 35 45 295 254 241 250 252 252 243 232 214 202 198 211 227 237 254 267 238 212 180 114 121 172 158 167 188 228 264 250 223 190 207 236
288 223 205 218 230 254 83 126 128 110 10 234 156 51 288 254 218 209 240 218 202 178 141 156 156 154 141 150 156 154 153 163 166 175 179 176 175 171 178 178 181 187 188 186 169 151 145 148 148 139 137 135 148 126 137 129 133 134 126 129 146 147 183 205 221 223 247 240 236 244 239 247 228 206 191 191 203 204 218 234 250 233 217 217 163 187 192 183 180 210 197 206 235 220 167 193 209
280 278 226 211 217 219 120 130 117 138 172 219 199 131 256 320 252 215 217 206 211 190 169 165 161 161 152 153 159 160 161 170 178 178 179 173 172 168 180 191 189 185 188 167 160 153 143 143 145 149 142 139 142 121 132 130 122 147 172 184 177 177 188 239 220 216 213 238 242 242 245 261 224 193 199 201 199 218 211 219 226 226 240 235 196 176 334 330 280 252 231 211 234 172 165 195 207
254 247 260 228 149 237 203 147 160 182 247 142 192 120 148 276 271 220 184 188 205 212 209 166 174 166 157 159 164 163 166 167 176 186 182 183 178 179 180 187 205 239 179 159 156 151 154 153 149 148 145 143 142 135 139 149 153 170 181 184 174 178 193 215 225 222 222 239 235 261 267 284 281 225 218 221 217 214 203 209 222 234 237 244 226 206 161 217 246 286 276 176 293 220 192 197 147
226 252 251 1 40 307 181 123 145 154 136 210 239 131 66 238 269 286 153 173 220 219 207 191 180 173 161 160 166 164 165 170 176 180 185 181 177 179 174 165 134 119 337 213 166 154 151 148 141 137 142 143 147 158 157 168 173 179 182 167 171 200 188 211 267 296 247 266 270 275 298 300 295 267 223 223 214 207 222 220 203 222 235 252 240 181 202 207 206 232 203 231 226 243 208 183 153
254 246 360 15 60 238 164 149 112 108 98 210 230 178 124 277 280 56 164 191 217 216 208 192 181 173 165 159 162 160 155 161 159 163 167 154 150 140 112 118 137 158 148 138 136 143 147 142 144 145 152 155 161 162 165 174 181 165 162 175 174 218 249 304 318 272 269 281 279 294 275 276 272 268 239 242 223 194 231 247 226 224 237 248 255 233 167 206 216 212 197 207 199 226 237 210 182
242 21 14 8 26 4 3 49 84 55 329 252 217 172 132 211 264 195 156 212 204 199 184 174 183 173 167 164 158 153 151 138 134 145 124 117 108 118 125 131 125 108 145 150 147 155 157 147 145 153 161 161 162 161 164 176 170 161 173 184 188 186 227 207 236 257 291 320 264 295 231 223 262 299 359 306 299 225 230 232 236 238 239 246 227 156 190 145 155 188 240 207 209 218 234 230 241
189 84 91 16 340 360 29 346 39 121 269 263 190 168 136 139 288 257 224 253 189 172 182 173 180 179 168 166 158 153 143 137 139 140 134 129 120 116 117 119 138 159 169 147 142 154 153 149 145 148 154 151 155 155 159 164 163 174 190 193 199 215 204 207 210 231 253 234 242 258 312 338 8 340 291 255 234 228 211 226 228 240 219 216 185 162 158 77 328 104 144 211 230 240 234 241 232
29 78 42 75 274 19 317 7 346 196 214 257 131 127 49 113 211 210 216 224 221 184 173 176 172 171 166 161 155 149 141 142 146 149 145 151 148 147 148 134 146 156 166 169 161 158 149 148 147 142 150 154 151 153 160 159 165 182 202 210 223 226 216 232 245 268 282 265 249 9 335 313 316 328 269 267 261 260 224 192 165 165 194 85 56 53 40 339 336 346 332 325 203 245 246 215 223
89 174 127 99 99 69 238 272 233 310 291 276 122 73 109 259 302 226 227 231 193 185 180 166 161 163 166 153 148 144 151 154 154 158 159 154 155 147 150 151 159 157 160 162 163 151 147 149 148 148 153 151 146 153 159 168 187 197 201 216 219 216 242 215 198 151 173 151 138 125 288 301 335 299 347 37 15 74 85 103 110 102 92 92 90 75 38 3 344 279 253 254 301 300 288 242 243
212 154 148 180 147 160 222 215 218 213 216 285 254 84 201 128 236 215 223 282 161 170 154 152 152 154 147 138 143 144 152 157 157 165 165 157 157 152 155 158 157 155 155 157 156 141 140 147 148 147 147 154 154 163 165 182 199 203 206 212 225 157 195 169 187 146 118 128 209 58 348 255 252 6 16 70 88 85 108 104 104 103 105 84 61 50 43 48 22 3 339 310 331 323 315 314 292
248 150 90 84 222 147 172 203 158 231 336 6 14 89 159 149 253 53 37 76 92 119 121 127 139 140 130 135 141 151 158 161 167 163 159 154 155 153 151 154 155 154 155 151 144 143 147 153 149 151 159 166 168 166 177 185 201 209 168 193 196 170 158 102 74 37 83 189 160 163 313 338 351 123 96 104 71 101 105 100 89 109 81 67 70 74 67 56 30 44 14 4 357 332 331 320 290
280 101 205 215 160 137 143 347 324 51 50 11 120 18 340 308 358 5 17 61 97 112 127 139 145 146 137 143 150 154 161 163 167 165 161 157 156 156 155 155 153 156 151 147 149 155 152 152 145 145 156 159 158 166 166 162 157 142 165 176 127 84 83 99 118 248 233 310 39 302 9 331 49 104 129 126 94 64 104 99 77 54 50 72 69 69 77 43 35 25 353 344 333 332 333 312 298
102 195 241 260 100 117 137 213 333 49 181 204 151 154 217 120 247 323 41 71 149 130 147 151 150 146 143 151 154 157 163 169 170 166 163 167 162 157 156 156 158 162 156 146 149 148 149 146 145 142 146 150 147 149 143 151 137 128 131 111 116 134 128 141 153 175 190 12 356 324 33 75 67 123 131 114 98 62 39 86 68 57 68 61 72 37 15 17 13 351 328 319 308 322 330 314 306
178 207 179 99 253 320 317 99 203 290 259 177 337 37 191 201 223 136 188 188 177 159 149 145 151 152 145 152 155 159 150 146 157 161 160 168 163 156 158 158 161 160 152 150 143 138 137 134 134 136 142 143 146 143 151 131 125 135 137 141 143 136 136 131 165 51 25 2 322 11 82 150 195 135 110 137 95 22 311 40 83 117 113 153 264 228 214 29 101 356 329 334 319 345 348 330 317
296 43 7 241 120 167 249 214 185 122 212 93 225 174 212 217 217 184 189 188 170 158 158 163 165 152 146 152 153 154 154 159 162 165 169 170 170 163 165 163 159 154 150 151 144 138 137 136 134 135 121 122 129 139 139 140 138 147 164 141 152 144 153 135 116 128 10 346 2 321 305 156 187 157 147 95 69 55 48 117 119 124 174 241 236 274 327 298 295 239 258 322 307 358 355 330 319
236 257 197 189 209 202 151 217 152 166 168 164 153 246 274 259 207 185 184 178 174 166 166 165 165 149 149 152 153 158 159 161 163 167 171 175 174 166 166 159 151 145 149 141 139 141 135 133 137 135 127 137 141 141 142 153 148 163 149 147 151 130 113 149 17 46 30 347 315 25 130 195 148 155 197 84 119 113 110 132 150 214 227 256 289 279 279 253 242 252 272 263 289 334 335 312 318
187 181 197 179 172 207 215 270 337 98 99 175 135 223 276 270 172 192 166 176 169 171 158 156 156 150 155 155 156 159 161 166 165 168 171 175 162 154 151 145 139 141 139 134 136 129 131 136 145 136 125 156 135 142 146 153 143 141 155 169 156 139 150 125 101 45 56 336 328 343 184 142 138 227 102 121 129 139 136 152 184 275 284 303 292 271 256 211 234 237 265 255 238 254 277 286 299